Volver al catálogo

NOAA 16 DEB

ActivoPO
NORAD 41304·DEBRIS·🇺🇸 United States

Lanzado Sep 21, 2000 desde Vandenberg Space Force Base

Loading…

Próximos Pases (próximas 24 horas)

TLE

ActualizadoSource: Space-Track

Época: Sep 12, 2026, 22:17 UTC

1 41304U 00055HG  26255.92872679  .00003925  00000-0  13147-2 0  9999
2 41304  99.0840  68.1637 0031182  18.1649 342.0642 14.37661101553104

Sigue NOAA 16 DEB en tiempo real con AllMySat

Download on the App Store